Location: Il Ritiro
(43.4167°N, 13.1333°E)
Time: 01:32:51
(UTC+00:00)

EO 1 Delta rocket - Pass Details

Date: 05 July 2020
Orbit: 697 x 1792 km, 95.4° (Epoch: 11 August)

Event Time Altitude Azimuth Distance (km) Brightness Sun altitude
Rises 21:45:26 0° 12° (NNE) 3,219 8.1 -21.0°
Reaches altitude 10° 21:47:35 10° 16° (NNE) 2,364 7.3 -21.1°
Maximum altitude 21:52:43 64° 98° (E) 995 4.4 -21.4°
Enters shadow 21:54:42 42° 162° (SSE) 1,341 4.7 -21.6°
